1496638800.23,46083,17.88,73858.5,5.33,5.11,5.19,0,*79
1496638801.44,46084,17.88,73862.3,5.35,5.07,5.07,0,*70
1496638802.71,46085,17.88,73858.8,5.35,4.97,5.01,0,*7F
1496638803.94,46086,17.88,73856.3,5.35,5.01,5.07,0,*74
1496638805.18,46087,17.88,73860.5,5.35,4.89,5.01,0,*72
1496638806.44,46088,17.88,73858.3,5.35,4.75,4.79,0,*70
1496638807.67,46089,17.88,73856.8,5.33,4.79,4.79,0,*7B
1496638808.84,46090,17.88,73860.5,5.33,4.89,4.89,0,*73
1496638810.1,46091,17.88,73860.3,5.35,4.97,4.97,0,*74
1496638811.36,46092,17.94,73860.5,5.35,4.75,4.75,0,*77
1496638812.56,46093,17.88,73860.0,5.33,4.79,4.85,0,*73
1496638813.77,46094,17.88,73860.0,5.33,5.01,5.07,0,*71
1496638814.98,46095,17.88,73862.3,5.33,5.01,5.07,0,*70
1496638816.16,46096,17.88,73858.5,5.33,5.07,5.07,0,*75
1496638817.34,46097,17.88,73862.3,5.33,5.07,5.07,0,*74
1496638818.52,46098,17.88,73860.8,5.33,5.11,5.11,0,*7B
1496638819.79,46099,17.88,73860.8,5.35,5.01,5.01,0,*7C
1496638820.99,46100,17.88,73862.3,5.33,4.79,4.85,0,*78
1496638822.16,46101,17.94,73864.0,5.33,4.89,4.89,0,*7A
1496638823.39,46102,17.88,73862.8,5.33,4.97,5.01,0,*77
1496638824.57,46103,17.94,73862.3,5.33,5.07,5.11,0,*7F
1496638825.84,46104,17.88,73862.0,5.35,5.01,5.01,0,*79
1496638827.1,46105,17.88,73860.8,5.35,5.01,5.01,0,*78
1496638828.28,46106,17.94,73862.5,5.33,5.11,5.19,0,*75
1496638829.47,46107,17.88,73862.8,5.33,5.11,5.11,0,*7C
1496638830.65,46108,17.88,73862.5,5.33,5.07,5.11,0,*74
1496638831.88,46109,17.88,73862.8,5.33,5.01,5.01,0,*72
1496638833.14,46110,17.88,73862.3,5.35,4.97,4.97,0,*7C
1496638834.34,46111,17.88,73862.8,5.33,4.79,4.85,0,*78
1496638835.57,46112,17.88,73864.0,5.33,4.75,4.79,0,*74
1496638836.77,46113,17.88,73864.0,5.33,4.79,4.85,0,*7A
1496638837.94,46114,17.94,73864.8,5.33,4.85,4.89,0,*72
1496638839.12,46115,17.94,73866.5,5.33,4.89,4.89,0,*7F
1496638840.38,46116,17.88,73864.3,5.35,4.97,5.01,0,*74
1496638841.64,46117,17.94,73866.3,5.31,4.75,4.75,0,*7F
1496638842.9,46118,17.88,73862.8,5.31,4.75,4.71,0,*74
1496638844.1,46119,17.88,73864.8,5.31,4.81,4.85,0,*75
1496638845.27,46120,17.88,73862.3,5.29,4.85,4.81,0,*76
1496638846.5,46121,17.88,73862.5,5.33,5.01,5.01,0,*78
1496638847.74,46122,17.88,73860.3,5.29,5.05,4.97,0,*7A
1496638848.99,46123,17.94,73864.0,5.31,5.05,4.97,0,*72
1496638850.25,46124,17.88,73866.0,5.31,5.05,5.05,0,*7F
1496638851.51,46125,17.88,73864.3,5.31,5.05,5.05,0,*7E
1496638852.76,46126,17.94,73864.5,5.31,4.93,4.97,0,*79
1496638854.02,46127,17.88,73862.0,5.31,4.93,4.93,0,*7C
1496638855.28,46128,17.88,73862.8,5.31,4.93,4.93,0,*73
1496638856.45,46129,17.88,73864.0,5.29,4.81,4.81,0,*7B
1496638857.63,46130,17.94,73864.3,5.29,4.85,4.85,0,*73
1496638858.86,46131,17.88,73862.0,5.29,4.97,4.97,0,*72
1496638860.09,46132,17.94,73864.3,5.29,4.97,4.97,0,*71
1496638861.27,46133,17.88,73862.3,5.29,5.07,5.07,0,*70
1496638862.45,46134,17.88,73864.0,5.29,5.07,5.19,0,*78
1496638863.66,46135,17.94,73864.8,5.31,5.19,5.19,0,*7F
1496638864.89,46136,17.88,73862.8,5.31,5.05,5.19,0,*71
1496638866.15,46137,17.94,73864.8,5.31,5.05,5.05,0,*7D
1496638867.41,46138,17.88,73866.0,5.31,4.97,4.93,0,*76
1496638868.58,46139,17.88,73860.3,5.29,4.85,4.85,0,*7A
1496638869.84,46140,17.94,73866.0,5.31,4.97,4.93,0,*79
1496638871.1,46141,17.88,73866.8,5.31,4.97,4.97,0,*7C
1496638872.36,46142,17.88,73866.0,5.31,4.97,4.97,0,*7F
1496638873.59,46143,17.88,73860.0,5.33,4.97,4.97,0,*7C
1496638874.82,46144,17.88,73862.3,5.31,4.81,4.93,0,*7A
1496638875.99,46145,17.94,73866.0,5.29,4.81,4.85,0,*75
1496638877.22,46146,17.88,73864.0,5.29,4.93,4.97,0,*76
1496638878.4,46147,17.88,73862.5,5.29,5.07,5.07,0,*73
1496638879.63,46148,17.88,73864.8,5.29,5.05,5.05,0,*7C
1496638880.83,46149,17.88,73862.0,5.33,4.85,4.97,0,*75
1496638882.07,46150,17.88,73862.5,5.33,4.97,4.97,0,*7E
1496638883.3,46151,17.88,73864.3,5.29,4.97,4.97,0,*74
1496638884.48,46152,17.88,73862.5,5.29,5.07,5.07,0,*77
1496638885.65,46153,17.94,73864.5,5.29,5.07,5.07,0,*76
1496638886.89,46154,17.88,73860.8,5.31,4.97,5.07,0,*70
1496638888.12,46155,17.88,73860.3,5.29,5.05,5.05,0,*70
1496638889.35,46156,17.94,73864.3,5.29,5.05,5.05,0,*73
1496638890.53,46157,17.94,73864.8,5.29,5.15,5.07,0,*71
1496638891.76,46158,17.94,73866.0,5.29,4.97,4.97,0,*7D
1496638893.02,46159,17.88,73862.8,5.31,4.93,4.97,0,*71
1496638894.25,46160,17.94,73864.0,5.29,4.93,4.93,0,*76
1496638895.45,46161,17.88,73862.0,5.29,4.71,4.81,0,*78
1496638896.69,46162,17.88,73860.3,5.29,4.71,4.71,0,*74
1496638897.93,46163,17.88,73860.5,5.29,4.71,4.71,0,*75
1496638899.13,46164,17.88,73860.8,5.29,4.85,4.75,0,*7D
1496638900.3,46165,17.88,73864.3,5.25,4.81,4.81,0,*7F
1496638901.48,46166,17.88,73860.0,5.25,4.89,4.89,0,*7C
1496638902.66,46167,17.88,73864.3,5.25,4.89,4.89,0,*7D
1496638903.84,46168,17.88,73862.8,5.25,4.89,4.81,0,*7A
1496638905.04,46169,17.94,73864.3,5.25,4.79,4.81,0,*74
1496638906.21,46170,17.94,73866.8,5.25,4.85,4.89,0,*77
1496638907.45,46171,17.88,73860.8,5.25,4.93,4.93,0,*7A
1496638908.62,46172,17.88,73862.5,5.25,4.89,4.89,0,*79
1496638909.83,46173,17.88,73860.0,5.25,4.93,4.89,0,*73
1496638911.0,46174,17.88,73862.5,5.25,4.89,4.89,0,*7F
1496638912.23,46175,17.88,73864.8,5.25,4.67,4.67,0,*7E
1496638913.46,46176,17.88,73860.8,5.23,4.63,4.63,0,*7B
1496638914.67,46177,17.88,73862.3,5.23,4.89,4.97,0,*75
1496638915.87,46178,17.88,73862.0,5.23,4.89,4.97,0,*7A
1496638917.1,46179,17.88,73860.5,5.23,4.79,4.79,0,*74
1496638918.33,46180,17.94,73866.8,5.23,4.75,4.79,0,*7E
1496638919.56,46181,17.94,73864.0,5.25,4.79,4.71,0,*7D
1496638920.74,46182,17.94,73862.8,5.23,4.53,4.57,0,*74
1496638921.97,46183,17.88,73862.8,5.25,4.75,4.79,0,*7B
1496638923.2,46184,17.94,73864.3,5.25,5.01,5.05,0,*74
1496638924.41,46185,17.94,73866.8,5.23,4.89,4.97,0,*78
1496638925.58,46186,17.88,73864.3,5.23,4.57,4.57,0,*74
1496638926.81,46187,17.88,73864.0,5.23,4.67,4.67,0,*75
1496638928.04,46188,17.88,73866.3,5.25,4.75,4.67,0,*7F
1496638929.24,46189,17.94,73866.0,5.23,4.79,4.85,0,*78
1496638930.44,46190,17.88,73862.8,5.23,4.79,4.85,0,*70
1496638931.69,46191,17.94,73864.3,5.21,4.63,4.67,0,*74
1496638932.89,46192,17.94,73864.8,5.21,4.53,4.53,0,*73
1496638934.09,46193,17.94,73866.0,5.21,4.49,4.53,0,*79
1496638935.34,46194,17.88,73862.5,5.21,4.79,4.79,0,*75
1496638936.53,46195,17.94,73866.0,5.21,4.89,4.89,0,*74
1496638937.79,46196,17.94,73866.3,5.21,4.79,4.75,0,*7B
1496638939.02,46197,17.88,73862.3,5.23,4.75,4.75,0,*74
1496638940.25,46198,17.88,73860.3,5.23,4.67,4.75,0,*78
1496638941.47,46199,17.88,73860.8,5.23,4.63,4.79,0,*71
1496638942.73,46200,17.94,73864.0,5.21,4.75,4.75,0,*7B
1496638943.98,46201,17.88,73864.0,5.21,4.75,4.75,0,*7A
1496638945.22,46202,17.94,73866.5,5.19,4.63,4.71,0,*71
1496638946.42,46203,17.88,73864.0,5.21,4.53,4.53,0,*78
1496638947.59,46204,17.94,73864.3,5.19,4.49,4.53,0,*7F
1496638948.77,46205,17.94,73864.3,5.19,4.57,4.53,0,*71
1496638949.95,46206,17.88,73862.8,5.19,4.37,4.37,0,*76
1496638951.13,46207,17.88,73864.3,5.19,4.45,4.45,0,*77
1496638952.31,46208,17.88,73862.0,5.19,4.27,4.27,0,*78
1496638953.54,46209,17.88,73862.5,5.17,4.05,4.23,0,*73
1496638954.74,46210,17.94,73866.5,5.17,4.15,4.11,0,*7B
1496638955.94,46211,17.88,73860.0,5.17,4.27,4.23,0,*7A
1496638957.14,46212,17.94,73862.3,5.17,4.33,4.27,0,*78
1496638958.31,46213,17.94,73864.5,5.15,4.11,4.19,0,*76
1496638959.49,46214,17.94,73864.0,5.15,4.41,4.41,0,*79
1496638960.66,46215,17.94,73862.8,5.15,4.45,4.49,0,*74
1496638961.84,46216,17.94,73866.3,5.15,4.45,4.45,0,*7B
1496638963.02,46217,17.94,73864.8,5.15,4.45,4.45,0,*7A
1496638964.19,46218,17.88,73862.8,5.15,4.49,4.45,0,*79
1496638965.36,46219,17.94,73866.8,5.15,4.45,4.49,0,*78
1496638966.54,46220,17.88,73862.0,5.15,4.45,4.45,0,*7E
1496638967.73,46221,17.88,73862.5,5.17,4.49,4.49,0,*7D
1496638968.91,46222,17.94,73866.0,5.15,4.45,4.45,0,*7C
1496638970.09,46223,17.94,73864.8,5.15,4.45,4.45,0,*7D
1496638971.26,46224,17.88,73864.3,5.15,4.57,4.45,0,*79
1496638972.5,46225,17.88,73864.3,5.15,4.59,4.71,0,*71
1496638973.75,46226,17.88,73860.3,5.13,4.79,4.79,0,*7E
1496638974.94,46227,17.94,73866.3,5.13,4.81,4.81,0,*7F
1496638976.2,46228,17.88,73862.8,5.13,4.67,4.71,0,*77
1496638977.44,46229,17.88,73866.8,5.13,4.67,4.59,0,*7C
1496638978.7,46230,17.94,73864.5,5.13,4.67,4.71,0,*7E
1496638979.96,46231,17.88,73866.5,5.13,4.71,4.71,0,*78
1496638981.15,46232,17.94,73866.0,5.13,4.81,4.89,0,*73
1496638982.4,46233,17.94,73866.5,5.13,4.79,4.79,0,*7A
1496638983.66,46234,17.94,73864.5,5.13,4.59,4.67,0,*70
1496638984.91,46235,17.88,73866.0,5.13,4.79,4.79,0,*7C
1496638986.1,46236,17.88,73866.5,5.13,4.81,4.89,0,*77
1496638987.35,46237,17.88,73866.0,5.13,4.59,4.59,0,*7E
1496638988.56,46238,17.88,73862.3,5.13,4.33,4.41,0,*74
1496638989.73,46239,17.88,73866.5,5.15,4.23,4.19,0,*7F
1496638990.93,46240,17.88,73864.5,5.13,4.33,4.41,0,*7B
1496638992.16,46241,17.94,73868.0,5.15,4.59,4.59,0,*79
1496638993.42,46242,17.94,73866.3,5.13,4.71,4.79,0,*74
1496638994.67,46243,17.88,73864.5,5.13,4.79,4.79,0,*7D
1496638995.87,46244,17.88,73862.3,5.13,4.89,4.81,0,*72
1496638997.06,46245,17.88,73866.8,5.13,4.89,4.89,0,*7B
1496638998.26,46246,17.88,73860.0,5.13,4.81,4.81,0,*78
1496638999.45,46247,17.94,73868.3,5.13,4.81,4.81,0,*79
1496639000.64,46248,17.94,73868.3,5.13,4.57,4.49,0,*79
1496639001.84,46249,17.88,73866.0,5.13,4.45,4.45,0,*77
1496639003.03,46250,17.94,73868.5,5.13,4.45,4.49,0,*73
1496639004.23,46251,17.88,73866.0,5.13,4.45,4.45,0,*7E
1496639005.49,46252,17.94,73866.5,5.13,4.59,4.67,0,*70
1496639006.71,46253,17.94,73870.3,5.13,4.79,4.81,0,*7B
1496639007.88,46254,17.88,73868.5,5.11,4.85,4.85,0,*79
1496639009.11,46255,17.94,73870.5,5.11,4.63,4.63,0,*78
1496639010.37,46256,17.88,73866.8,5.13,4.71,4.71,0,*79
1496639011.55,46257,17.94,73868.5,5.15,4.57,4.57,0,*7E
1496639012.8,46258,17.94,73870.0,5.13,4.59,4.67,0,*7A
1496639014.0,46259,17.94,73870.3,5.13,4.45,4.45,0,*76
1496639015.19,46260,17.88,73866.0,5.13,4.49,4.49,0,*7C
1496639016.39,46261,17.94,73870.3,5.13,4.45,4.45,0,*7D
1496639017.57,46262,17.94,73868.0,5.11,4.41,4.41,0,*7C
1496639018.76,46263,17.94,73870.3,5.13,4.49,4.45,0,*73
1496639019.99,46264,17.94,73872.0,5.11,4.75,4.67,0,*79
1496639021.24,46265,17.88,73870.3,5.13,4.79,4.79,0,*79
1496639022.41,46266,17.94,73868.8,5.11,4.45,4.53,0,*7F
1496639023.59,46267,17.94,73870.8,5.11,4.53,4.45,0,*7E
1496639024.76,46268,17.94,73868.8,5.11,4.45,4.45,0,*76
1496639025.97,46269,17.88,73868.0,5.11,4.63,4.57,0,*70
1496639027.2,46270,17.94,73870.0,5.11,4.63,4.67,0,*7B
1496639028.42,46271,17.94,73870.0,5.11,4.67,4.63,0,*7A
1496639029.6,46272,17.94,73870.5,5.11,4.53,4.53,0,*7D
1496639030.8,46273,17.94,73868.5,5.13,4.45,4.41,0,*7A
1496639032.01,46274,17.94,73870.3,5.11,4.37,4.31,0,*7D
1496639033.21,46275,17.94,73870.0,5.13,4.41,4.41,0,*78
1496639034.39,46276,17.94,73868.0,5.11,4.53,4.45,0,*7E
1496639035.57,46277,17.94,73868.3,5.11,4.53,4.53,0,*78
1496639036.75,46278,17.88,73864.5,5.11,4.37,4.41,0,*76
1496639038.01,46279,17.94,73870.3,5.09,4.59,4.63,0,*76
1496639039.21,46280,17.94,73868.3,5.09,4.81,4.81,0,*79
1496639040.46,46281,17.94,73870.5,5.09,4.93,4.93,0,*78
1496639041.72,46282,17.88,73868.5,5.09,4.93,4.93,0,*7B
1496639042.99,46283,17.94,73868.0,5.09,4.71,4.71,0,*7A
1496639044.16,46284,17.94,73868.0,5.11,4.45,4.45,0,*74
1496639045.39,46285,17.94,73868.0,5.11,4.67,4.63,0,*71
1496639046.62,46286,17.88,73866.8,5.11,4.79,4.79,0,*76
1496639047.85,46287,17.94,73868.0,5.11,4.75,4.75,0,*77
1496639049.08,46288,17.94,73868.0,5.11,4.79,4.79,0,*78
1496639050.25,46289,17.88,73866.8,5.11,4.89,4.85,0,*75
1496639051.43,46290,17.94,73870.3,5.11,4.85,4.85,0,*71
1496639052.66,46291,17.88,73864.5,5.11,4.75,4.75,0,*70
1496639053.86,46292,17.94,73866.8,5.11,4.75,4.89,0,*70
1496639055.09,46293,17.94,73870.3,5.11,4.79,4.75,0,*7E
1496639056.29,46294,17.94,73870.5,5.11,4.79,4.89,0,*7A
1496639057.52,46295,17.94,73868.0,5.11,4.97,4.97,0,*74
1496639058.72,46296,17.94,73868.0,5.11,4.97,4.89,0,*78
1496639059.89,46297,17.94,73870.5,5.11,4.89,4.89,0,*76
1496639061.1,46298,17.94,73868.5,5.11,4.85,4.97,0,*7A
1496639062.29,46299,17.94,73870.3,5.13,4.89,4.89,0,*7A
1496639063.52,46300,17.94,73870.8,5.13,4.81,4.79,0,*7C
1496639064.77,46301,17.94,73868.0,5.13,4.93,4.93,0,*7A
1496639066.0,46302,17.94,73870.8,5.11,4.97,4.97,0,*7B
1496639067.24,46303,17.94,73870.5,5.15,5.01,5.05,0,*7A
1496639068.49,46304,17.94,73866.3,5.13,5.01,5.05,0,*7B
1496639069.75,46305,17.94,73868.0,5.13,5.01,5.01,0,*7E
1496639070.98,46306,17.94,73868.5,5.15,5.05,5.05,0,*7B
1496639072.2,46307,17.94,73868.0,5.13,4.79,4.81,0,*7B
1496639073.46,46308,17.94,73870.8,5.13,4.79,4.71,0,*7B
1496639074.71,46309,17.94,73868.5,5.13,4.71,4.67,0,*75
1496639075.94,46310,17.94,73870.8,5.11,4.67,4.67,0,*78
1496639077.11,46311,17.94,73870.0,5.11,4.85,4.89,0,*75
1496639078.37,46312,17.94,73868.3,5.13,4.93,5.05,0,*76
1496639079.62,46313,17.88,73866.0,5.13,5.01,5.05,0,*7D
1496639080.82,46314,17.94,73868.3,5.13,5.11,5.11,0,*7E
1496639082.02,46315,17.94,73866.8,5.13,5.15,5.15,0,*7F
1496639083.22,46316,17.88,73866.8,5.13,5.15,5.19,0,*70
1496639084.43,46317,17.94,73868.5,5.13,5.19,5.19,0,*7D
1496639085.64,46318,17.88,73864.5,5.13,5.19,5.19,0,*72
1496639086.84,46319,17.94,73868.5,5.13,5.11,5.11,0,*73
1496639088.03,46320,17.94,73870.0,5.15,5.11,5.11,0,*7F
1496639089.24,46321,17.94,73866.8,5.15,5.05,5.07,0,*7C
1496639090.47,46322,17.88,73864.5,5.15,5.01,5.05,0,*79
1496639091.7,46323,17.88,73866.8,5.15,5.05,5.05,0,*7C
1496639092.94,46324,17.94,73866.8,5.17,4.93,5.07,0,*75
1496639094.19,46325,17.88,73866.8,5.17,4.97,5.05,0,*72
1496639095.37,46326,17.94,73866.3,5.15,4.89,4.81,0,*71
1496639096.6,46327,17.88,73864.8,5.15,4.79,4.79,0,*78
1496639097.77,46328,17.94,73870.5,5.15,4.81,4.81,0,*77
1496639098.94,46329,17.94,73868.5,5.15,4.81,4.81,0,*76
1496639100.17,46330,17.94,73868.0,5.15,4.79,4.79,0,*7E
1496639101.35,46331,17.94,73868.3,5.15,4.81,4.89,0,*77
1496639102.55,46332,17.94,73870.0,5.15,4.79,4.81,0,*7B
1496639103.72,46333,17.88,73864.5,5.15,4.81,4.89,0,*75
1496639104.98,46334,17.88,73866.8,5.17,4.71,4.75,0,*7C
1496639106.18,46335,17.94,73870.3,5.13,4.45,4.45,0,*7D
1496639107.38,46336,17.94,73866.0,5.13,4.49,4.57,0,*71
1496639108.6,46337,17.94,73868.0,5.11,4.67,4.67,0,*7D
1496639109.86,46338,17.94,73868.3,5.13,4.71,4.71,0,*70
1496639111.1,46339,17.94,73868.0,5.11,4.67,4.75,0,*70
1496639112.32,46340,17.94,73866.3,5.11,4.67,4.67,0,*7D
1496639113.55,46341,17.94,73868.8,5.11,4.63,4.67,0,*78
1496639114.77,46342,17.94,73866.5,5.13,4.57,4.59,0,*73
1496639116.03,46343,17.88,73866.0,5.13,4.71,4.79,0,*74
1496639117.26,46344,17.94,73864.3,5.11,4.67,4.75,0,*7A
1496639118.51,46345,17.94,73864.8,5.13,4.67,4.79,0,*75
1496639119.74,46346,17.88,73862.5,5.11,4.79,4.79,0,*7B
1496639121.0,46347,17.94,73868.0,5.13,4.93,5.01,0,*72
1496639122.19,46348,17.94,73866.5,5.13,4.89,4.89,0,*77
1496639123.42,46349,17.94,73866.0,5.13,4.89,4.93,0,*7D
1496639124.65,46350,17.94,73864.8,5.11,4.75,4.75,0,*7C
1496639125.89,46351,17.88,73864.3,5.13,4.71,4.57,0,*7B
1496639127.06,46352,17.88,73864.0,5.11,4.41,4.41,0,*7E
1496639128.26,46353,17.94,73864.5,5.13,4.49,4.57,0,*72
1496639129.51,46354,17.88,73864.5,5.13,4.59,4.59,0,*7A
1496639130.74,46355,17.94,73868.8,5.11,4.67,4.67,0,*79
1496639131.97,46356,17.94,73866.5,5.11,4.79,4.79,0,*7A
1496639133.2,46357,17.94,73864.0,5.13,4.89,4.93,0,*72
1496639134.39,46358,17.94,73866.8,5.13,4.81,4.81,0,*76
1496639135.62,46359,17.88,73864.0,5.11,4.79,4.79,0,*75
1496639136.82,46360,17.94,73864.8,5.11,4.85,4.79,0,*7C
1496639138.07,46361,17.88,73864.3,5.13,4.79,4.79,0,*7C
1496639139.27,46362,17.94,73866.8,5.11,4.79,4.85,0,*7E
1496639140.5,46363,17.94,73866.5,5.11,4.63,4.63,0,*7C
1496639141.73,46364,17.94,73864.8,5.11,4.67,4.75,0,*78
1496639142.96,46365,17.94,73862.5,5.11,4.79,4.79,0,*7A
1496639144.18,46366,17.88,73862.5,5.11,4.79,4.79,0,*79
1496639145.38,46367,17.88,73866.0,5.11,4.75,4.85,0,*77
1496639146.6,46368,17.88,73864.8,5.13,4.79,4.89,0,*7A
1496639147.83,46369,17.94,73864.8,5.11,4.67,4.67,0,*76
1496639149.06,46370,17.88,73866.8,5.11,4.79,4.79,0,*7E
1496639150.25,46371,17.94,73866.5,5.13,4.81,4.81,0,*7D
1496639151.48,46372,17.88,73862.5,5.11,4.79,4.79,0,*7C
1496639152.68,46373,17.94,73864.8,5.11,4.79,4.85,0,*7E
1496639153.9,46374,17.94,73864.0,5.13,4.93,4.89,0,*73
1496639155.08,46375,17.88,73864.0,5.11,4.89,4.89,0,*7B
1496639156.33,46376,17.88,73864.5,5.13,5.05,5.05,0,*7A
1496639157.56,46377,17.88,73862.3,5.11,4.97,4.97,0,*79
1496639158.79,46378,17.94,73866.5,5.13,4.89,4.93,0,*7F
1496639160.05,46379,17.94,73866.0,5.13,4.93,4.93,0,*75
1496639161.27,46380,17.94,73866.0,5.13,4.79,4.89,0,*7C
1496639162.52,46381,17.88,73862.8,5.13,4.93,4.93,0,*72
1496639163.78,46382,17.94,73864.8,5.13,4.93,4.93,0,*71
1496639164.95,46383,17.88,73864.3,5.11,4.89,4.89,0,*72
1496639166.21,46384,17.94,73866.8,5.13,4.93,4.93,0,*77
1496639167.38,46385,17.88,73864.3,5.11,4.85,4.89,0,*78
1496639168.61,46386,17.88,73866.0,5.11,4.93,4.93,0,*77
1496639169.87,46387,17.94,73866.5,5.13,5.01,5.05,0,*70
1496639171.12,46388,17.88,73864.8,5.13,4.93,5.05,0,*75
1496639172.29,46389,17.94,73866.5,5.11,4.85,4.89,0,*74
1496639173.49,46390,17.88,73866.0,5.13,4.89,4.89,0,*72
1496639174.75,46391,17.94,73868.3,5.13,5.01,5.01,0,*73
1496639175.96,46392,17.94,73866.5,5.11,5.01,5.07,0,*74
1496639177.19,46393,17.88,73866.0,5.11,5.01,5.01,0,*73
1496639178.45,46394,17.94,73864.0,5.13,5.01,5.05,0,*72
1496639179.7,46395,17.88,73866.0,5.13,5.01,5.05,0,*73
1496639180.95,46396,17.88,73864.3,5.13,5.05,5.05,0,*74
1496639182.18,46397,17.94,73866.5,5.13,4.89,4.93,0,*7E
1496639183.4,46398,17.88,73864.0,5.13,4.93,4.89,0,*71
1496639184.66,46399,17.88,73866.8,5.13,4.93,5.01,0,*71
1496639185.92,46400,17.94,73866.0,5.13,4.93,5.01,0,*76
1496639187.18,46401,17.94,73866.0,5.13,5.01,5.05,0,*79
1496639188.41,46402,17.94,73868.5,5.15,5.05,5.05,0,*78
1496639189.64,46403,17.94,73866.5,5.17,5.05,5.07,0,*79
1496639190.87,46404,17.94,73864.3,5.15,4.93,5.05,0,*70
1496639192.13,46405,17.88,73866.0,5.17,5.05,5.05,0,*7D
1496639193.33,46406,17.88,73866.0,5.15,4.81,4.79,0,*7B
1496639194.55,46407,17.94,73866.3,5.17,4.75,4.81,0,*74
1496639195.73,46408,17.94,73866.8,5.15,4.89,4.89,0,*72
1496639196.99,46409,17.88,73866.3,5.13,4.93,4.93,0,*75
1496639198.18,46410,17.94,73866.8,5.13,4.81,4.81,0,*7D
1496639199.4,46411,17.94,73866.3,5.13,4.93,4.81,0,*7F
1496639200.66,46412,17.88,73862.5,5.13,4.93,5.01,0,*75
1496639201.9,46413,17.88,73864.0,5.15,5.01,5.05,0,*7C
1496639203.15,46414,17.88,73864.8,5.13,5.01,4.93,0,*73
1496639204.32,46415,17.94,73868.3,5.15,4.81,4.89,0,*76
1496639205.52,46416,17.88,73866.0,5.15,4.79,4.89,0,*72
1496639206.7,46417,17.88,73864.3,5.15,4.89,4.81,0,*74
1496639207.94,46418,17.94,73866.0,5.15,4.71,4.79,0,*7B
1496639209.11,46419,17.88,73864.3,5.15,4.81,4.81,0,*72
1496639210.37,46420,17.94,73866.3,5.13,4.93,4.93,0,*7E
1496639211.62,46421,17.88,73862.8,5.13,5.05,5.05,0,*7F
1496639212.85,46422,17.94,73866.0,5.13,4.89,5.01,0,*7D
1496639214.1,46423,17.94,73866.5,5.13,4.79,4.79,0,*7D
1496639215.3,46424,17.94,73864.3,5.15,4.79,4.81,0,*7B
1496639216.48,46425,17.94,73866.5,5.15,4.89,4.89,0,*7D
1496639217.71,46426,17.94,73864.8,5.15,4.71,4.79,0,*76
1496639218.95,46427,17.88,73864.5,5.15,4.67,4.71,0,*78
1496639220.18,46428,17.94,73864.8,5.15,4.67,4.67,0,*70
1496639221.41,46429,17.88,73864.8,5.15,4.67,4.67,0,*71
1496639222.66,46430,17.88,73866.5,5.13,4.67,4.67,0,*7F
1496639223.91,46431,17.94,73866.3,5.13,4.59,4.59,0,*7E
1496639225.1,46432,17.94,73866.5,5.11,4.57,4.59,0,*71
1496639226.33,46433,17.94,73866.0,5.13,4.71,4.81,0,*73
1496639227.58,46434,17.88,73864.0,5.13,4.79,4.79,0,*7B
1496639228.81,46435,17.94,73864.3,5.11,4.67,4.79,0,*77
1496639230.06,46436,17.88,73864.3,5.13,4.67,4.67,0,*79
1496639231.26,46437,17.94,73864.8,5.11,4.79,4.89,0,*75
1496639232.43,46438,17.88,73866.5,5.11,4.89,4.89,0,*75
1496639233.66,46439,17.88,73866.8,5.13,4.89,5.05,0,*73
1496639234.85,46440,17.94,73864.8,5.13,4.81,4.89,0,*70
1496639236.05,46441,17.94,73868.3,5.13,4.81,4.89,0,*71
1496639237.28,46442,17.88,73864.3,5.15,4.93,5.01,0,*76
1496639238.54,46443,17.94,73866.8,5.13,4.93,5.01,0,*71
1496639239.72,46444,17.94,73866.0,5.11,4.85,4.85,0,*7E
1496639240.92,46445,17.94,73866.8,5.13,4.89,4.89,0,*7D
1496639242.11,46446,17.94,73870.0,5.13,4.81,4.89,0,*76
1496639243.31,46447,17.94,73870.3,5.13,4.89,4.89,0,*7F
1496639244.5,46448,17.94,73868.8,5.13,4.81,4.85,0,*74
1496639245.73,46449,17.94,73866.0,5.13,4.81,4.79,0,*76
1496639246.92,46450,17.94,73866.3,5.13,4.81,4.81,0,*79
1496639248.09,46451,17.94,73868.8,5.11,4.85,4.85,0,*7A
1496639249.32,46452,17.94,73870.8,5.11,4.75,4.79,0,*75
1496639250.54,46453,17.94,73866.0,5.13,4.79,4.81,0,*7D
1496639251.77,46454,17.94,73870.0,5.11,4.79,4.79,0,*7F
1496639252.99,46455,17.94,73870.8,5.13,4.79,4.89,0,*73
1496639254.19,46456,17.94,73868.3,5.11,4.79,4.85,0,*7E
1496639255.42,46457,17.94,73868.5,5.13,4.89,4.93,0,*75
1496639256.65,46458,17.94,73868.5,5.11,4.97,4.97,0,*73
1496639257.91,46459,17.94,73870.3,5.13,5.05,5.01,0,*74
1496639259.16,46460,17.94,73870.0,5.13,5.05,5.05,0,*7A
1496639260.37,46461,17.94,73868.3,5.13,5.11,5.11,0,*7B
1496639261.6,46462,17.94,73868.3,5.15,5.01,5.05,0,*7A
1496639262.82,46463,17.94,73870.8,5.13,4.81,4.79,0,*7E
1496639264.08,46464,17.94,73868.3,5.13,4.79,4.79,0,*7E
1496639265.32,46465,17.94,73870.0,5.13,4.79,4.79,0,*7F
1496639266.52,46466,17.94,73870.0,5.13,4.81,4.89,0,*74
1496639267.78,46467,17.94,73870.3,5.13,4.93,5.01,0,*77
1496639269.03,46468,17.94,73868.0,5.13,5.01,5.05,0,*76
1496639270.27,46469,17.94,73870.0,5.15,5.01,5.01,0,*75
1496639271.5,46470,17.94,73868.5,5.15,4.93,4.93,0,*7D
1496639272.76,46471,17.88,73866.0,5.13,4.93,4.93,0,*7A
1496639274.02,46472,17.94,73872.5,5.13,4.93,4.93,0,*79
1496639275.27,46473,17.94,73866.0,5.13,4.93,5.01,0,*72
1496639276.53,46474,17.88,73864.3,5.13,5.01,5.01,0,*7F
1496639277.73,46475,17.94,73866.8,5.13,4.81,4.89,0,*76
1496639278.96,46476,17.88,73864.0,5.13,4.89,4.93,0,*76
1496639280.15,46477,17.94,73870.8,5.13,4.89,4.89,0,*7C
1496639281.41,46478,17.88,73864.5,5.13,4.93,4.93,0,*73
1496639282.67,46479,17.88,73866.8,5.13,4.93,5.01,0,*78
1496639283.84,46480,17.94,73870.8,5.15,4.89,4.89,0,*72
1496639285.04,46481,17.94,73870.3,5.15,4.79,4.89,0,*7C
1496639286.26,46482,17.94,73868.8,5.13,4.79,4.81,0,*71
1496639287.46,46483,17.94,73868.8,5.13,4.89,4.89,0,*77
1496639288.66,46484,17.94,73870.5,5.13,4.89,4.89,0,*70
1496639289.85,46485,17.94,73866.8,5.13,4.89,4.89,0,*71
1496639291.11,46486,17.88,73864.0,5.13,4.79,4.79,0,*72
1496639292.34,46487,17.94,73868.0,5.15,4.67,4.71,0,*72
1496639293.54,46488,17.94,73866.3,5.13,4.89,4.81,0,*74
1496639294.77,46489,17.94,73870.3,5.13,4.89,4.93,0,*76
1496639296.02,46490,17.94,73866.5,5.13,4.67,4.67,0,*75
1496639297.25,46491,17.94,73866.0,5.13,4.59,4.57,0,*7A
1496639298.51,46492,17.94,73868.3,5.13,4.71,4.71,0,*77
1496639299.7,46493,17.94,73866.8,5.13,4.81,4.81,0,*76
1496639300.93,46494,17.94,73868.3,5.11,4.79,4.79,0,*73
1496639302.19,46495,17.94,73870.8,5.13,4.93,5.01,0,*7A
1496639303.38,46496,17.94,73868.5,5.13,4.89,4.89,0,*73
1496639304.61,46497,17.94,73868.3,5.13,4.89,4.93,0,*79
1496639305.87,46498,17.94,73868.5,5.13,5.01,5.01,0,*7D
1496639307.1,46499,17.94,73868.3,5.11,5.01,4.97,0,*70
1496639308.34,46500,17.94,73870.3,5.15,5.01,5.05,0,*7F
1496639309.57,46501,17.88,73866.5,5.15,5.01,5.05,0,*7E
1496639310.8,46502,17.94,73868.5,5.15,5.05,5.05,0,*79
1496639312.03,46503,17.94,73868.5,5.11,4.97,4.97,0,*7C
1496639313.29,46504,17.88,73868.5,5.13,5.01,5.01,0,*79
1496639314.51,46505,17.94,73872.3,5.13,4.79,4.81,0,*7F
1496639315.69,46506,17.88,73868.3,5.11,4.57,4.57,0,*79
1496639316.91,46507,17.94,73868.8,5.13,4.57,4.59,0,*74
1496639318.14,46508,17.88,73864.8,5.11,4.63,4.67,0,*73
1496639319.36,46509,17.94,73870.3,5.13,4.81,4.79,0,*73
1496639320.58,46510,17.94,73868.8,5.13,4.79,4.81,0,*7B
1496639321.84,46511,17.94,73868.5,5.13,4.71,4.79,0,*75
1496639323.06,46512,17.94,73868.3,5.13,4.79,4.81,0,*79
1496639324.31,46513,17.94,73870.0,5.13,4.67,4.71,0,*78
1496639325.54,46514,17.94,73868.0,5.11,4.63,4.63,0,*7A
1496639326.74,46515,17.94,73868.5,5.13,4.49,4.57,0,*76
1496639327.91,46516,17.94,73870.0,5.11,4.45,4.45,0,*78
1496639329.16,46517,17.88,73870.3,5.13,4.59,4.59,0,*7B
1496639330.37,46518,17.94,73870.0,5.11,4.63,4.57,0,*71
1496639331.6,46519,17.88,73868.3,5.11,4.71,4.79,0,*7F